Location: Casco Volunteer Fire Department
(44.5576°N, 87.6146°W)
Time: 05:29:29
(UTC+00:00)

Cosmos 1190 Rocket - Pass Details

Date: 22 January 2026
Orbit: 753 x 775 km, 74.1° (Epoch: 10 February)

Event Time Altitude Azimuth Distance (km) Brightness Sun altitude
Rises 11:59:00 0° 208° (SSW) 3,203 7.1 -14.1°
Reaches altitude 10° 12:01:23 10° 211° (SSW) 2,280 6.3 -13.7°
Maximum altitude 12:06:31 64° 293° (WNW) 836 3.9 -12.8°
Drops below altitude 10° 12:11:40 10° 15° (NNE) 2,287 6.5 -12.0°
Sets 12:14:04 0° 19° (NNE) 3,215 7.3 -11.6°
